カタログに戻る

COSMOS 2251 DEB

運用中LEO
NORAD 34969·DEBRIS·🇷🇺 Russia

打ち上げ Jun 16, 1993 から Plesetsk Cosmodrome

Loading…

次のパス (今後24時間)

TLE

経年Source: Space-Track

元期: Sep 9, 2026, 17:16 UTC

1 34969U 93036AEY 26252.71966599  .00000456  00000-0  17217-3 0  9997
2 34969  74.0111 247.7944 0075630 314.8075  44.6942 14.32638508690175

AllMySatでCOSMOS 2251 DEBをリアルタイム追跡

Download on the App Store